ROMMA est une association bénévole à but non lucratif. Votre soutien est indispensable : ADHERER à ROMMA ou FAIRE un DON

Saint-Léger-les-Mélèzes - (05, Hautes-Alpes)

Champsaur (1245 m)   Longitude: 6° 11' 42" E    Latitude: 44° 38' 38" N Station partenaire n°51
 

Détail journalier du     <<     >>

Température Humidité Vent Dir Rafale Dir. rafale Ensol.
Heure (°C) (%) (km/h) (km/h) (min)
01:00 3.3813S6SSO0
02:00 4.2802ESE5ESE0
03:00 4.5813S10ESE0
04:00 4.1793S8S0
05:00 3.9694S10S0
06:00 3.7663S8S0
07:00 2.6714S8SSE0
08:00 2.4725S10S0
09:00 3.2685S10S0
10:00 6.2601S5S0
11:00 8.25303OSO0
12:00 10.74403OSO30
13:00 12.63906ONO60
14:00 13.6351ONO10ONO60
15:00 14.7342SO8S60
16:00 14.7351O6SSO50
17:00 13.6391SSO6SSO20
18:00 11.0433S11S0
19:00 8.8502S10S0
20:00 7.0562SSO8SSO0
21:00 5.7614S8S0
22:00 5.0663S6S0
23:00 4.2693S8S0
minuit 3.9693SSO8SSO0

Graphique du 25-02-2019

 

Serveur OMMA